CW8844 Weather Reports


Display with metric or nautical units.
time (UTC)temp
F
wind
direction
speed
MPH
gust
MPH
rain 1hr
in
rain 24hr
in
rain mn
in
humidity
%
barometer
mb
20260508161616 58 99 0.0 1.0 0.00 0.00 0.00 49 1016.8
20260508160624 56 153 0.0 0.0 0.00 0.00 0.00 50 1016.9
20260508155623 55 251 0.0 0.0 0.00 0.00 0.00 50 1016.9
20260508154633 54 259 0.0 1.0 0.00 0.00 0.00 52 1017.0
20260508153628 54 215 2.0 3.0 0.00 0.00 0.00 54 1017.0
20260508152618 52 215 1.0 3.0 0.00 0.00 0.00 57 1017.1
20260508151628 52 216 0.0 4.0 0.00 0.00 0.00 57 1017.1
20260508150618 52 205 1.0 4.0 0.00 0.00 0.00 58 1017.1
20260508145617 51 234 0.0 0.0 0.00 0.00 0.00 60 1017.2
20260508144623 50 234 0.0 0.0 0.00 0.00 0.00 61 1017.2
20260508143650 50 234 1.0 4.0 0.00 0.00 0.00 61 1017.1
20260508142617 49 80 0.0 0.0 0.00 0.00 0.00 65 1017.0
20260508141629 47 80 0.0 4.0 0.00 0.00 0.00 66 1017.1
20260508140654 47 65 1.0 4.0 0.00 0.00 0.00 67 1017.1
20260508135615 46 63 1.0 3.0 0.00 0.00 0.00 66 1016.9
20260508134646 45 132 1.0 6.0 0.00 0.00 0.00 70 1017.0
20260508133616 44 97 0.0 2.0 0.00 0.00 0.00 70 1017.0
20260508132621 43 87 3.0 7.0 0.00 0.00 0.00 71 1016.9
20260508131629 42 86 4.0 8.0 0.00 0.00 0.00 72 1016.9
20260508130617 42 80 2.0 7.0 0.00 0.00 0.00 72 1016.8
20260508125621 42 80 3.0 7.0 0.00 0.00 0.00 73 1016.6
20260508124630 41 112 4.0 6.0 0.00 0.00 0.00 76 1016.4
20260508123619 41 72 0.0 5.0 0.00 0.00 0.00 74 1016.6
20260508122629 42 71 2.0 5.0 0.00 0.00 0.00 72 1016.2
20260508121624 42 86 2.0 6.0 0.00 0.00 0.00 72 1016.1
20260508120632 42 106 2.0 7.0 0.00 0.00 0.00 73 1016.1
20260508115632 42 105 2.0 6.0 0.00 0.00 0.00 72 1016.1
20260508114621 42 93 4.0 8.0 0.00 0.00 0.00 71 1016.0
20260508113630 43 72 4.0 8.0 0.00 0.00 0.00 70 1015.9
20260508112637 43 82 5.0 8.0 0.00 0.00 0.00 69 1015.9
20260508111624 44 150 0.0 11.0 0.00 0.00 0.00 68 1015.8
20260508110631 44 89 7.0 12.0 0.00 0.00 0.00 68 1015.5
20260508105651 44 89 5.0 10.0 0.00 0.00 0.00 68 1015.6
20260508104625 44 89 5.0 10.0 0.00 0.00 0.00 68 1015.5
20260508103615 44 56 7.0 10.0 0.00 0.00 0.00 67 1015.4
20260508102625 44 84 6.0 10.0 0.00 0.00 0.00 68 1015.4
20260508101615 44 86 4.0 8.0 0.00 0.00 0.00 67 1015.2
20260508100642 44 59 3.0 8.0 0.00 0.00 0.00 68 1015.2
20260508095618 44 86 6.0 15.0 0.00 0.00 0.00 68 1015.1
20260508094645 44 74 9.0 13.0 0.00 0.00 0.00 68 1015.2
20260508093633 44 68 7.0 11.0 0.00 0.00 0.00 68 1015.2
20260508092623 45 74 7.0 11.0 0.00 0.00 0.00 68 1015.1
20260508091632 45 98 4.0 9.0 0.00 0.00 0.00 67 1015.2
20260508090620 45 72 7.0 12.0 0.00 0.00 0.00 66 1015.2
20260508085622 45 85 5.0 10.0 0.00 0.00 0.00 66 1015.2
20260508084652 46 95 6.0 12.0 0.00 0.00 0.00 66 1015.3
20260508083618 46 81 6.0 9.0 0.00 0.00 0.00 65 1015.4
20260508082647 46 173 3.0 10.0 0.00 0.00 0.00 65 1015.4
20260508081616 47 101 5.0 11.0 0.00 0.00 0.00 64 1015.2
20260508080644 47 72 6.0 10.0 0.00 0.00 0.00 64 1015.1
20260508075626 48 112 8.0 10.0 0.00 0.00 0.00 62 1015.1
20260508074654 48 101 8.0 13.0 0.00 0.00 0.00 61 1015.1
20260508073622 48 79 6.0 9.0 0.00 0.00 0.00 62 1015.1
20260508072629 48 115 7.0 10.0 0.00 0.00 0.00 62 1015.1
20260508071623 49 113 6.0 13.0 0.00 0.00 0.00 61 1015.0
20260508070630 50 87 5.0 13.0 0.00 0.00 0.00 59 1015.0
20260508065629 50 121 5.0 13.0 0.00 0.00 0.00 58 1015.0
20260508064614 51 70 8.0 16.0 0.00 0.00 0.00 57 1014.7
20260508063626 51 86 8.0 14.0 0.00 0.00 0.00 56 1014.7
20260508062633 51 85 7.0 12.0 0.00 0.00 0.00 57 1014.7
20260508061622 51 90 6.0 11.0 0.00 0.00 0.00 58 1014.6
20260508060629 51 76 6.0 10.0 0.00 0.00 0.00 57 1014.6
20260508055632 52 66 5.0 9.0 0.00 0.00 0.00 56 1014.5
20260508054625 52 124 5.0 8.0 0.00 0.00 0.00 55 1014.5
20260508053614 53 112 6.0 9.0 0.00 0.00 0.00 55 1014.5
20260508052622 53 131 6.0 9.0 0.00 0.00 0.00 54 1014.5
20260508051630 53 65 5.0 8.0 0.00 0.00 0.00 54 1014.4
20260508050622 54 102 4.0 6.0 0.00 0.00 0.00 54 1014.4
20260508045622 54 72 4.0 7.0 0.00 0.00 0.00 53 1014.4
20260508044630 54 74 4.0 7.0 0.00 0.00 0.00 53 1014.4
20260508043621 54 119 4.0 9.0 0.00 0.00 0.00 53 1014.4
20260508042614 54 71 5.0 7.0 0.00 0.00 0.00 54 1014.4
20260508041641 54 71 2.0 3.0 0.00 0.00 0.00 54 1014.2
20260508040627 56 96 0.0 5.0 0.00 0.00 0.00 52 1014.1
20260508035631 57 80 3.0 8.0 0.00 0.00 0.00 48 1013.9
20260508034622 57 82 4.0 8.0 0.00 0.00 0.00 47 1013.8
20260508033630 57 88 5.0 7.0 0.00 0.00 0.00 47 1013.7
20260508032617 56 79 4.0 6.0 0.00 0.00 0.00 50 1013.7
20260508031626 56 92 4.0 6.0 0.00 0.00 0.00 50 1013.6
20260508030618 57 82 3.0 6.0 0.00 0.00 0.00 52 1013.4
20260508025621 58 71 2.0 4.0 0.00 0.00 0.00 48 1013.2
20260508024630 59 71 2.0 4.0 0.00 0.00 0.00 49 1013.2
20260508023618 60 11 0.0 0.0 0.00 0.00 0.00 47 1013.1
20260508022632 62 331 0.0 0.0 0.00 0.00 0.00 45 1013.0
20260508021620 65 320 0.0 3.0 0.00 0.00 0.00 37 1013.1
20260508020629 66 288 0.0 0.0 0.00 0.00 0.00 37 1013.0
20260508015616 67 288 1.0 8.0 0.00 0.00 0.00 36 1012.9
20260508014625 68 263 3.0 9.0 0.00 0.00 0.00 34 1012.9
20260508013614 69 316 2.0 4.0 0.00 0.00 0.00 34 1013.0
20260508012625 69 258 3.0 9.0 0.00 0.00 0.00 33 1013.0
20260508011617 69 275 8.0 11.0 0.00 0.00 0.00 32 1012.9
20260508010644 69 273 7.0 11.0 0.00 0.00 0.00 32 1012.9
20260508005626 70 255 7.0 11.0 0.00 0.00 0.00 30 1012.9
20260508004615 70 266 5.0 10.0 0.00 0.00 0.00 31 1012.9
20260508003646 70 281 5.0 8.0 0.00 0.00 0.00 30 1012.8
20260508002618 70 292 5.0 11.0 0.00 0.00 0.00 30 1012.8
20260508001629 71 262 3.0 9.0 0.00 0.00 0.00 32 1012.8
20260508000615 70 271 3.0 10.0 0.00 0.00 0.00 30 1012.9
20260507235617 69 229 3.0 7.0 0.00 0.00 0.00 32 1013.1
20260507234649 69 198 2.0 5.0 0.00 0.00 0.00 32 1013.4
20260507233616 69 250 3.0 7.0 0.00 0.00 0.00 30 1013.7
20260507232625 68 160 4.0 7.0 0.00 0.00 0.00 33 1013.9
20260507231633 68 164 0.0 6.0 0.00 0.00 0.00 30 1013.9
20260507230623 67 205 1.0 5.0 0.00 0.00 0.00 33 1014.0
20260507225624 66 301 0.0 0.0 0.00 0.00 0.00 34 1014.2
20260507224615 66 300 0.0 0.0 0.00 0.00 0.00 36 1014.4
20260507223626 65 300 0.0 3.0 0.00 0.00 0.00 35 1014.5
20260507222619 66 302 0.0 4.0 0.00 0.00 0.00 35 1014.7
20260507221630 65 291 2.0 6.0 0.00 0.00 0.00 33 1014.7
20260507220618 66 311 3.0 7.0 0.00 0.00 0.00 34 1014.9
20260507215624 66 298 5.0 8.0 0.00 0.00 0.00 34 1015.0
20260507214614 66 277 7.0 13.0 0.00 0.00 0.00 32 1015.1
20260507213623 66 260 9.0 12.0 0.00 0.00 0.00 33 1015.1
20260507212632 67 271 7.0 15.0 0.00 0.00 0.00 32 1015.3
20260507211625 67 246 11.0 15.0 0.00 0.00 0.00 31 1015.4
20260507210654 68 279 10.0 15.0 0.00 0.00 0.00 33 1015.4
20260507205616 69 257 12.0 18.0 0.00 0.00 0.00 30 1015.3
20260507204626 69 292 12.0 16.0 0.00 0.00 0.00 32 1015.4
20260507203621 69 282 10.0 16.0 0.00 0.00 0.00 30 1015.6
20260507202628 68 265 8.0 21.0 0.00 0.00 0.00 29 1015.6
20260507201618 68 286 10.0 16.0 0.00 0.00 0.00 31 1015.6
20260507200628 67 275 8.0 15.0 0.00 0.00 0.00 33 1015.8
20260507195650 67 299 11.0 18.0 0.00 0.00 0.00 30 1016.0
20260507194624 67 286 11.0 17.0 0.00 0.00 0.00 32 1016.0
20260507193629 66 276 10.0 16.0 0.00 0.00 0.00 34 1016.2
20260507192617 66 287 12.0 17.0 0.00 0.00 0.00 30 1016.2
20260507191626 67 279 13.0 18.0 0.00 0.00 0.00 30 1016.2
20260507190617 66 271 11.0 18.0 0.00 0.00 0.00 34 1016.3
20260507185616 66 281 14.0 20.0 0.00 0.00 0.00 29 1016.2
20260507184646 66 286 14.0 21.0 0.00 0.00 0.00 30 1016.2
20260507183615 64 304 6.0 16.0 0.00 0.00 0.00 31 1016.3
20260507182627 65 272 10.0 14.0 0.00 0.00 0.00 33 1016.3
20260507181654 65 275 11.0 15.0 0.00 0.00 0.00 31 1016.4
20260507180651 65 290 8.0 13.0 0.00 0.00 0.00 36 1016.4
20260507175633 64 263 4.0 10.0 0.00 0.00 0.00 34 1016.6
20260507174641 63 255 4.0 9.0 0.00 0.00 0.00 36 1016.8
20260507173629 62 280 1.0 4.0 0.00 0.00 0.00 39 1016.8
20260507172624 61 257 1.0 6.0 0.00 0.00 0.00 40 1016.8
20260507171614 59 247 0.0 0.0 0.00 0.00 0.00 41 1016.9
20260507170644 57 248 0.0 1.0 0.00 0.00 0.00 45 1017.1
20260507165645 56 236 0.0 2.0 0.00 0.00 0.00 44 1017.2
20260507164619 54 302 1.0 4.0 0.00 0.00 0.00 46 1017.3
20260507163629 53 280 1.0 4.0 0.00 0.00 0.00 46 1017.5
20260507162619 52 296 1.0 3.0 0.00 0.00 0.00 53 1017.6